STARLINK-34374, 64308

Orbit data source: Space-Track

STARLINK-34374, 64308 is a payload satellite owned by SpaceX/Seattle (US) in LEO that was launched on Sun, 08 Jun 2025 UTC via an FALCON 9 launch vehicle from the Air Force Western Test Range (AFWTR). Payload-class satellites include a variety of spacecraft equipped with specific instruments for various scientific and technological missions. These include communications satellites like Starlink; space stations such as the ISS; scientific satellites like the Hubble; Earth observation satellites from companies like Planet Labs, Umbra, and HawkEye 360; GPS; miniature CubeSats for education and research; and military/defense satellites.

Loading next visibility...
Identifier
64308, 2025-123T
Orbit
LEO
Country
Flag of USUS
Related business
Manufacturer
SpaceX/Seattle
Mission
Operational Commercial Communications
Bus & Motor
STARLINK V2MO, Unknown motor
Mass
575 kg wet, ~530 kg dry
Launch date (UTC)
2025-06-08 (10 months ago)
Launch vehicle
FALCON 9
Launch site
Air Force Western Test Range (AFWTR)
Object type
Payload
Rocket body
Debris
Shape & HBR
Box + 2 Pan, 17.7 m
Radar Cross Section
36.964 m², Large (>1 m²)

Expand to show TLE details & history
Last TLE update: 15 hours ago

TLE from 15 hours ago
0 STARLINK-34374
1 64308U 25123T   26093.66667824 -.00028137  00000-0 -23585-2 0  9997
2 64308  69.9997 131.5632 0004100 274.1038 232.6690 14.98347913  5779
Epoch: 2026-04-03T16:00Z
TLE epoch observation values (Epoch: 2026-04-03T16:00:00.999Z)
Latitude
31.09496°
Longitude
-133.049°
Altitude
577.143 km
Speed
7.574 km/s
True Right ascension
19h 55m 48s
True Declination
30° 56' 21"
Sunlit
Object was in daylight at epoch
Visualization orbit readout
Latitude
Unknown
Longitude
Unknown
Altitude
Unknown
Speed
Unknown
Apparent Right ascension
Unknown
Apparent Declination
Unknown
Sunlit
N/A
Visualization observer readout
Local Sidereal Time
13:06:57
Azimuth
Unknown
Elevation
Unknown
Doppler factor
Unknown
Orbital elements
Apogee altitude
572.797 km
Perigee altitude
567.1 km
Semi-major axis
6,948.086 km
Eccentricity
0.00041
Inclination
69.9997°
RAAN
131.5632°
Arg. of periapsis
274.1038°
True anomaly
232.63165°
Mean anomaly
232.669°
Eccentric anomaly
232.65033°
Mean motion
3.74753 °/min
Orbital period
96.06 mins
BSTAR
-0.0023585
Loading maneuver chart data...
Computing Atmospheric mass density...
Loading historical data...
Loading historical data...
Loading historical data...
Loading historical data...
Loading historical data...
Loading historical data...
Loading historical data...

Documentation

Showing up to 5 results
|